Temperature
3 3 2 1 -0 -1 -1 -1 -1 -1 -2 -2 -3 -3 -4 -5 -6 -6 -7 -8 -8 -8 -9 -9 -10 -10 -10 -10 -10 -10 -10 -9 -9 -8 -7 -4 -4 -4 -5 -4 -3 -3 -2
3 3 1 0 -1 -1 -1 -1 -1 -2 -3 -4 -5 -5 -5 -5 -6 -7 -8 -8 -8 -9 -10 -10 -11 -11 -11 -11 -11 -11 -11 -11 -11 -12 -12 -10 -8 -6 -5 -4 -4 -4 -3
3 2 1 -0 -1 -1 -1 -1 -2 -3 -3 -4 -5 -5 -5 -6 -7 -7 -8 -9 -9 -10 -10 -11 -11 -12 -12 -13 -13 -12 -12 -12 -12 -12 -12 -11 -10 -10 -8 -7 -6 -6 -5
3 1 0 -1 -1 -1 -1 -2 -3 -3 -4 -5 -5 -6 -7 -7 -8 -9 -9 -9 -10 -10 -11 -12 -12 -13 -13 -13 -13 -13 -13 -13 -13 -13 -12 -12 -11 -11 -9 -9 -8 -7 -6
2 1 0 -1 -1 -1 -2 -2 -3 -4 -4 -5 -6 -7 -8 -9 -9 -9 -10 -10 -11 -11 -12 -12 -13 -13 -13 -13 -14 -14 -13 -14 -14 -13 -13 -12 -11 -11 -10 -10 -9 -8 -7
2 1 0 -1 -1 -2 -2 -2 -3 -4 -5 -5 -6 -8 -8 -9 -9 -9 -10 -11 -12 -12 -12 -13 -13 -13 -13 -14 -14 -14 -14 -14 -13 -13 -13 -12 -12 -11 -11 -10 -10 -9 -8
2 1 0 -1 -2 -2 -2 -3 -3 -4 -5 -6 -7 -8 -8 -9 -10 -10 -11 -12 -12 -12 -12 -13 -13 -13 -13 -13 -14 -14 -14 -13 -13 -13 -12 -12 -11 -11 -11 -10 -10 -9 -8
1 0 -0 -1 -2 -2 -2 -3 -4 -5 -5 -6 -7 -8 -8 -9 -10 -11 -12 -12 -13 -13 -13 -13 -13 -13 -13 -13 -13 -13 -13 -13 -13 -12 -12 -11 -11 -10 -10 -10 -9 -9 -8
1 0 -1 -2 -2 -2 -3 -4 -5 -5 -6 -7 -7 -8 -9 -9 -10 -11 -12 -12 -13 -13 -12 -12 -12 -13 -13 -13 -13 -13 -13 -13 -12 -11 -11 -10 -10 -9 -9 -9 -9 -9 -8
0 -0 -1 -2 -2 -3 -4 -5 -5 -6 -6 -7 -7 -8 -9 -10 -11 -12 -12 -12 -12 -12 -12 -12 -12 -12 -12 -12 -12 -12 -12 -12 -11 -11 -10 -10 -9 -9 -9 -9 -8 -8 -8
0 -1 -1 -2 -2 -3 -4 -5 -5 -6 -6 -7 -7 -8 -9 -10 -11 -12 -12 -12 -12 -12 -12 -12 -12 -11 -11 -11 -11 -11 -11 -11 -11 -10 -10 -10 -9 -9 -9 -9 -8 -8 -8
-0 -1 -1 -2 -3 -4 -4 -5 -5 -6 -6 -7 -7 -8 -9 -10 -11 -12 -12 -12 -12 -12 -11 -11 -11 -11 -11 -11 -10 -10 -10 -10 -10 -10 -10 -10 -9 -9 -9 -9 -9 -9 -8
-0 -1 -1 -2 -3 -4 -4 -5 -5 -6 -6 -7 -7 -8 -9 -10 -11 -12 -12 -12 -12 -12 -11 -11 -11 -11 -11 -11 -10 -10 -10 -10 -10 -10 -10 -10 -10 -10 -9 -9 -9 -9 -9
-0 -1 -2 -3 -3 -4 -4 -5 -5 -6 -6 -7 -7 -8 -9 -10 -11 -12 -12 -12 -12 -12 -12 -11 -11 -10 -10 -11 -11 -10 -10 -10 -10 -10 -10 -10 -10 -10 -10 -10 -10 -9 -9
-1 -1 -2 -3 -3 -4 -4 -5 -5 -6 -6 -7 -7 -8 -9 -10 -11 -12 -12 -12 -12 -12 -12 -12 -11 -10 -10 -10 -11 -11 -11 -11 -11 -10 -10 -10 -11 -10 -11 -10 -10 -10 -10
-0 -1 -2 -3 -3 -4 -4 -5 -5 -6 -6 -7 -7 -8 -9 -10 -11 -11 -12 -12 -12 -12 -12 -12 -12 -11 -10 -11 -11 -12 -12 -12 -12 -12 -11 -11 -11 -11 -11 -11 -11 -10 -10
-0 -1 -2 -3 -3 -4 -4 -5 -5 -6 -6 -6 -7 -8 -9 -10 -11 -11 -12 -12 -12 -13 -13 -12 -12 -11 -11 -11 -12 -12 -12 -12 -12 -12 -12 -12 -12 -11 -11 -11 -11 -10 -10
-0 -1 -2 -3 -3 -4 -4 -5 -5 -6 -6 -6 -7 -8 -9 -10 -10 -11 -12 -12 -12 -13 -13 -13 -12 -12 -12 -11 -12 -12 -12 -12 -13 -13 -13 -13 -12 -11 -11 -11 -11 -11 -11
-0 -1 -2 -3 -3 -4 -4 -5 -5 -6 -6 -6 -7 -8 -9 -9 -10 -11 -11 -12 -12 -13 -13 -13 -13 -13 -12 -12 -11 -12 -12 -13 -13 -13 -13 -13 -13 -12 -12 -12 -11 -11 -11
-1 -1 -2 -3 -3 -4 -4 -5 -5 -6 -6 -6 -7 -8 -9 -9 -10 -10 -11 -12 -12 -13 -13 -13 -13 -13 -13 -12 -12 -12 -13 -13 -13 -14 -14 -13 -13 -13 -12 -13 -12 -12 -11
-1 -1 -2 -3 -3 -4 -4 -5 -5 -5 -6 -6 -7 -8 -9 -9 -10 -10 -10 -11 -12 -12 -12 -12 -13 -13 -13 -12 -12 -12 -13 -13 -13 -14 -14 -14 -13 -13 -13 -13 -13 -13 -11
-1 -1 -2 -2 -3 -4 -4 -4 -5 -5 -6 -6 -7 -8 -8 -9 -9 -10 -10 -10 -11 -11 -12 -12 -12 -12 -12 -12 -12 -12 -12 -13 -13 -14 -14 -14 -14 -14 -14 -14 -13 -12 -11
-0 -1 -2 -2 -3 -3 -4 -4 -5 -5 -6 -6 -7 -7 -8 -9 -9 -10 -10 -10 -10 -11 -11 -12 -12 -12 -12 -12 -12 -12 -13 -13 -14 -14 -14 -14 -14 -14 -14 -14 -13 -12 -11
-1 -1 -2 -2 -3 -3 -4 -4 -5 -5 -6 -6 -6 -7 -7 -8 -8 -9 -10 -10 -10 -11 -11 -11 -11 -11 -11 -11 -11 -12 -12 -13 -13 -14 -14 -14 -14 -14 -14 -14 -13 -13 -13
-0 -1 -2 -2 -3 -3 -4 -4 -5 -5 -6 -6 -6 -7 -7 -7 -8 -8 -9 -9 -10 -11 -11 -11 -11 -11 -11 -11 -11 -11 -12 -13 -13 -14 -14 -14 -14 -14 -14 -14 -14 -13 -13
-0 -1 -2 -2 -3 -3 -4 -4 -5 -5 -5 -6 -6 -6 -7 -7 -7 -7 -7 -8 -9 -10 -10 -11 -11 -10 -10 -10 -11 -11 -12 -13 -13 -14 -14 -14 -14 -14 -14 -14 -14 -14 -14
Wind_Speed
6 6 5 3 2 4 5 5 6 8 9 6 6 6 7 6 10 14 17 19 19 20 19 15 16 16 9 9 10 11 13 10 10 11 13 12 11 10 5 7 7 7 10
6 6 5 3 3 5 5 6 7 7 9 7 8 6 7 6 10 14 16 18 20 20 19 17 15 15 10 10 10 11 10 11 8 9 11 8 6 4 10 8 7 6 8
9 7 5 5 4 4 5 7 7 7 10 12 10 10 5 4 5 6 7 16 20 21 20 19 18 16 10 10 10 10 11 12 10 6 6 6 6 12 5 6 6 7 8
7 5 4 3 3 4 5 6 7 7 10 12 8 9 9 9 9 7 8 17 20 20 20 19 19 16 13 10 11 9 10 11 11 9 7 9 10 8 7 5 6 9 10
7 6 3 1 2 4 5 6 6 6 9 11 8 8 8 7 9 9 9 9 15 18 20 20 19 16 14 12 11 12 10 9 10 10 10 10 10 11 11 14 10 9 8
7 5 3 3 4 4 5 6 7 7 8 9 8 9 10 11 13 13 11 10 9 13 17 20 18 18 16 13 13 11 11 10 11 10 9 10 8 8 9 12 15 14 10
7 4 2 3 4 5 6 7 8 9 9 9 9 9 10 9 11 13 13 13 12 12 12 19 17 17 18 18 16 12 12 11 11 10 10 10 10 11 11 13 14 15 12
6 5 3 1 3 5 6 8 8 9 9 9 9 8 8 7 8 11 12 12 12 12 18 21 22 22 21 19 15 12 13 11 10 12 12 10 11 11 11 11 12 14 11
7 6 4 1 2 5 6 7 8 9 9 9 10 8 8 9 11 10 11 10 12 17 21 23 22 22 21 18 14 11 12 11 11 11 12 10 10 10 10 11 11 11 13
7 6 3 1 2 4 5 7 8 8 9 9 9 11 9 10 12 11 12 12 15 19 19 19 20 20 18 15 13 11 11 11 11 10 11 10 9 9 9 9 10 10 11
8 6 3 1 3 4 5 6 7 8 8 8 8 9 10 11 12 10 11 13 14 18 17 18 20 20 18 14 10 10 10 10 10 9 9 9 9 8 8 8 8 9 9
8 6 4 1 3 5 6 7 7 8 8 8 8 9 10 9 11 12 12 15 14 17 18 18 18 19 17 14 11 11 11 10 9 9 9 8 8 9 8 7 8 8 9
8 5 3 1 3 5 6 7 7 7 7 7 8 9 10 10 11 12 12 14 14 14 17 16 18 18 16 12 12 12 13 13 12 12 11 11 10 10 9 9 8 8 9
8 6 3 2 4 5 6 7 7 7 7 7 8 9 9 10 11 11 11 12 13 12 15 16 16 17 15 9 9 12 13 13 14 14 14 13 12 11 12 10 9 10 10
8 7 5 3 4 5 5 6 6 7 7 7 8 9 9 10 10 11 11 11 11 13 13 15 16 16 14 9 8 10 13 12 13 14 14 14 19 21 17 14 12 11 10
9 8 6 5 5 5 5 6 6 7 6 7 7 9 10 10 10 11 11 12 12 12 13 13 15 17 15 20 23 15 10 11 12 13 14 14 15 20 21 24 22 19 14
8 9 7 6 5 5 5 5 6 6 7 7 7 8 9 10 11 12 12 12 10 10 12 12 13 15 19 24 22 23 11 10 11 12 13 14 17 20 8 17 21 18 21
10 9 8 6 5 4 3 4 5 5 6 7 7 8 8 9 10 10 11 11 8 9 8 10 13 13 19 26 20 21 11 8 10 11 12 14 14 18 15 13 14 11 12
9 8 7 6 5 4 3 3 4 5 6 7 7 8 8 8 9 9 10 8 8 8 8 9 11 12 17 25 21 16 7 8 10 11 14 16 13 24 25 16 15 14 12
8 8 7 6 5 4 2 2 4 5 6 7 7 8 7 8 9 9 8 7 8 9 10 11 10 11 13 21 23 16 6 8 9 10 13 20 22 25 26 16 15 16 14
8 8 8 7 6 4 3 3 4 5 6 7 7 7 7 8 8 7 7 8 9 10 10 11 11 10 12 18 22 20 6 7 9 11 11 14 26 25 25 21 16 19 17
9 8 8 7 6 5 4 4 5 5 6 6 7 7 8 8 8 8 8 8 9 10 10 9 10 8 10 14 17 19 16 13 8 10 10 14 25 24 24 20 23 25 20
10 8 8 7 6 5 5 5 5 5 6 6 7 7 8 8 7 7 8 8 8 8 9 8 9 10 9 11 18 16 15 17 8 7 17 20 23 21 17 23 25 20 14
11 9 9 8 7 6 6 6 5 5 5 6 7 7 7 8 8 8 7 7 8 9 8 7 9 10 10 10 8 5 6 10 8 6 12 18 20 17 19 18 16 13 13
11 10 10 9 8 7 6 5 5 4 5 6 6 6 7 7 7 8 6 8 7 11 12 8 8 10 11 13 19 12 7 6 6 6 6 7 9 11 11 12 12 12 13
12 10 10 9 8 7 6 6 5 4 4 5 6 5 6 6 7 8 9 13 13 17 18 18 17 13 17 21 20 18 17 16 15 8 5 6 7 9 10 10 11 11 12
Wind_Direction
209 187 184 191 296 298 314 324 340 341 345 340 335 325 321 313 316 329 330 326 325 326 322 320 322 319 316 316 316 320 319 319 322 318 317 301 278 275 295 305 300 310 340
198 205 209 216 272 295 318 334 343 334 337 331 319 307 307 303 316 323 321 324 326 325 326 322 318 314 312 311 313 317 316 319 329 319 320 316 310 340 323 297 296 321 337
204 213 221 235 264 305 328 338 330 329 332 332 326 327 307 296 317 320 314 325 325 323 320 316 315 312 308 307 307 305 313 315 313 303 303 307 312 324 277 280 306 330 323
191 198 213 241 284 324 335 329 327 327 332 336 333 337 342 335 326 321 318 324 325 323 322 320 315 311 309 302 301 311 303 303 306 304 277 281 293 296 306 305 311 307 314
184 189 190 209 6 355 337 331 333 330 333 335 330 327 320 310 316 320 318 319 324 323 321 321 315 311 308 301 296 297 292 293 291 293 291 288 283 272 285 299 307 309 298
177 165 131 64 11 349 339 342 345 336 330 329 325 321 315 317 326 331 328 328 323 320 316 317 311 307 304 299 297 291 287 287 284 283 281 283 283 285 287 290 300 303 302
166 163 116 31 347 341 351 352 347 334 327 326 321 315 312 316 323 327 328 328 326 324 317 315 310 306 300 298 295 291 288 283 279 277 278 277 274 278 279 283 291 295 300
163 154 125 77 329 349 356 349 338 328 324 324 320 310 315 326 325 322 322 320 319 317 314 316 312 307 302 299 295 291 286 283 279 279 277 275 273 272 272 275 284 293 297
163 150 135 121 358 358 349 338 329 324 321 320 320 321 330 329 325 321 318 316 317 320 321 317 314 312 307 301 298 292 285 284 282 280 279 276 275 273 271 271 273 283 296
158 152 155 161 4 353 335 330 323 317 313 317 325 340 330 326 325 323 321 321 321 323 322 322 323 323 320 310 302 298 291 287 285 283 282 283 284 282 278 276 276 275 279
167 165 171 133 7 344 332 324 319 316 314 318 323 327 326 326 326 324 322 323 324 327 328 329 331 333 336 333 321 312 305 301 300 300 301 302 303 305 300 292 288 285 283
158 160 160 68 354 330 322 318 315 314 313 318 325 327 326 325 326 325 324 328 329 331 333 335 339 344 348 350 352 347 345 339 337 336 334 331 337 331 322 316 309 302 295
156 161 150 29 318 310 310 310 311 311 313 323 328 327 326 327 326 325 326 331 332 333 337 341 343 344 348 357 9 11 10 10 6 2 356 348 347 352 342 332 329 318 311
166 169 171 246 283 293 297 303 308 313 324 330 328 327 326 326 324 325 328 331 333 337 340 341 342 343 341 351 17 16 13 11 8 7 3 353 353 357 349 346 344 331 323
179 179 185 224 261 282 295 303 309 317 327 330 330 329 326 325 327 330 330 332 338 342 339 341 342 344 343 357 38 25 13 7 3 1 357 352 356 360 2 356 357 347 339
186 183 190 212 240 265 287 303 310 317 324 328 327 327 330 331 332 332 334 337 339 338 339 339 340 343 344 5 27 29 12 3 0 355 350 347 347 355 4 360 1 359 352
181 183 191 209 229 248 271 290 303 314 325 325 324 328 329 331 332 336 337 336 331 332 335 335 337 339 340 1 28 25 17 0 355 350 348 349 348 351 358 357 357 356 357
177 180 184 199 217 234 263 286 307 321 324 323 324 324 326 326 327 332 333 328 321 327 327 326 332 336 340 353 20 26 15 355 349 345 344 342 340 344 11 359 349 351 353
170 174 180 189 198 223 258 295 315 322 323 322 320 318 318 321 325 330 327 320 319 319 321 324 328 332 334 343 5 27 3 1 348 347 351 348 347 354 9 5 352 352 355
155 163 172 180 195 214 233 275 305 313 314 312 310 310 313 320 318 320 318 316 319 321 329 329 327 322 322 334 349 16 16 6 357 351 350 350 2 3 7 8 357 357 356
157 163 172 186 197 200 208 252 284 291 297 304 307 310 315 315 310 318 313 318 323 324 320 318 319 314 322 332 337 355 19 17 3 355 350 351 4 7 7 10 6 2 1
161 168 177 192 197 194 200 245 268 280 298 306 309 311 312 314 324 319 312 315 317 317 312 310 316 319 319 326 328 344 356 10 13 354 348 357 7 9 8 10 9 7 5
173 176 182 189 199 200 202 238 261 290 307 312 310 309 312 311 313 311 309 314 313 313 314 318 324 324 322 322 327 337 348 357 11 0 0 5 8 9 7 8 11 8 4
181 180 181 191 205 208 214 230 263 289 302 306 306 307 310 313 316 319 318 317 316 316 318 324 324 320 317 314 319 315 331 348 359 5 0 5 7 11 9 9 8 6 5
182 185 190 198 204 203 220 235 251 275 294 301 303 310 315 310 316 321 315 319 315 328 342 334 326 326 324 335 350 356 350 344 354 12 3 360 1 5 6 6 7 6 5
180 187 194 199 200 202 220 232 239 251 279 299 309 311 311 317 322 321 324 332 339 340 345 347 345 337 343 351 357 357 358 356 360 12 357 355 359 1 2 3 3 4 6
Height
1606 1605 1604 1602 1598 1595 1591 1587 1583 1578 1572 1566 1559 1553 1547 1542 1537 1531 1526 1520 1514 1507 1501 1495 1490 1484 1479 1474 1469 1464 1458 1454 1449 1442 1433 1429 1427 1425 1424 1423 1423 1422 1420
1602 1602 1601 1599 1596 1593 1589 1585 1580 1575 1569 1563 1557 1550 1544 1538 1533 1527 1522 1516 1510 1503 1497 1491 1485 1480 1474 1469 1465 1460 1454 1450 1447 1443 1435 1427 1422 1421 1420 1419 1417 1417 1415
1598 1599 1599 1597 1594 1590 1587 1582 1578 1572 1567 1560 1554 1547 1540 1534 1527 1520 1515 1510 1505 1499 1493 1486 1480 1475 1470 1465 1460 1456 1451 1446 1443 1442 1440 1434 1426 1418 1412 1413 1413 1412 1410
1596 1597 1596 1594 1591 1588 1584 1580 1575 1570 1564 1558 1551 1544 1536 1529 1523 1517 1511 1506 1501 1494 1488 1482 1476 1470 1465 1460 1456 1452 1448 1443 1438 1437 1435 1434 1430 1425 1413 1408 1408 1408 1406
1593 1594 1593 1591 1588 1585 1582 1578 1573 1568 1562 1555 1549 1542 1535 1528 1521 1514 1508 1501 1496 1490 1484 1478 1472 1466 1461 1455 1450 1446 1442 1439 1435 1432 1429 1427 1425 1422 1418 1407 1402 1402 1401
1590 1591 1590 1588 1586 1583 1579 1575 1571 1565 1559 1553 1546 1540 1532 1525 1518 1511 1504 1497 1491 1485 1480 1474 1468 1462 1456 1450 1445 1440 1436 1433 1429 1426 1424 1422 1420 1417 1414 1408 1401 1398 1396
1587 1588 1587 1585 1583 1580 1577 1573 1567 1562 1556 1550 1543 1537 1530 1523 1516 1509 1502 1495 1488 1482 1475 1469 1463 1456 1450 1444 1439 1434 1430 1426 1423 1421 1419 1416 1415 1413 1410 1406 1400 1396 1392
1584 1585 1584 1582 1580 1578 1574 1569 1564 1559 1553 1547 1541 1535 1528 1522 1515 1509 1503 1495 1488 1481 1473 1467 1459 1451 1444 1437 1432 1427 1423 1420 1417 1415 1414 1411 1409 1407 1405 1403 1399 1393 1388
1581 1582 1581 1580 1578 1575 1571 1566 1562 1557 1551 1545 1539 1533 1526 1520 1514 1508 1501 1495 1488 1480 1472 1464 1454 1445 1437 1431 1426 1421 1417 1415 1412 1410 1409 1407 1404 1402 1400 1398 1396 1394 1387
1579 1579 1578 1577 1575 1572 1568 1564 1560 1555 1549 1543 1537 1531 1525 1519 1512 1506 1500 1493 1486 1479 1470 1461 1451 1442 1433 1427 1422 1418 1414 1411 1409 1407 1405 1403 1401 1399 1396 1393 1391 1389 1386
1575 1576 1576 1575 1573 1569 1566 1562 1558 1553 1547 1542 1535 1529 1523 1517 1511 1505 1499 1492 1485 1478 1469 1461 1452 1443 1435 1428 1422 1417 1414 1411 1408 1406 1404 1402 1399 1396 1393 1390 1387 1384 1381
1572 1573 1573 1572 1570 1567 1563 1559 1555 1551 1545 1540 1534 1528 1522 1516 1510 1504 1497 1491 1484 1477 1470 1463 1455 1447 1439 1433 1427 1421 1417 1413 1409 1407 1404 1402 1399 1394 1390 1387 1383 1379 1376
1569 1570 1570 1569 1567 1564 1561 1557 1553 1549 1544 1538 1533 1527 1521 1514 1508 1503 1497 1490 1484 1477 1471 1464 1457 1450 1444 1438 1432 1427 1422 1417 1413 1409 1406 1403 1399 1394 1389 1384 1380 1376 1371
1565 1566 1566 1565 1564 1561 1559 1556 1552 1547 1542 1537 1532 1526 1519 1514 1508 1503 1497 1490 1484 1478 1471 1465 1459 1453 1447 1441 1435 1430 1425 1420 1416 1412 1408 1403 1399 1394 1388 1383 1378 1373 1368
1562 1563 1563 1562 1561 1559 1557 1554 1550 1546 1541 1536 1530 1524 1519 1513 1508 1502 1496 1490 1484 1479 1473 1467 1461 1454 1448 1443 1438 1432 1427 1422 1417 1413 1408 1404 1400 1395 1389 1383 1377 1371 1366
1558 1559 1560 1559 1558 1556 1554 1552 1548 1544 1540 1535 1530 1524 1519 1513 1507 1502 1496 1491 1485 1479 1473 1468 1462 1456 1450 1446 1440 1434 1428 1423 1418 1413 1408 1403 1398 1394 1387 1382 1375 1370 1365
1554 1555 1556 1556 1555 1554 1552 1549 1546 1543 1539 1534 1529 1524 1518 1513 1507 1502 1496 1491 1485 1479 1474 1469 1463 1457 1451 1447 1441 1435 1430 1424 1419 1413 1408 1404 1399 1393 1386 1380 1374 1368 1363
1550 1551 1552 1552 1552 1551 1550 1547 1545 1542 1538 1533 1528 1523 1518 1513 1507 1502 1496 1491 1485 1480 1474 1469 1464 1459 1453 1448 1442 1436 1431 1426 1420 1414 1409 1405 1399 1394 1387 1380 1373 1368 1363
1547 1548 1548 1549 1549 1548 1547 1545 1543 1540 1537 1532 1528 1523 1518 1513 1507 1501 1496 1491 1485 1480 1475 1470 1465 1460 1454 1448 1444 1437 1432 1427 1421 1416 1410 1406 1401 1395 1388 1380 1374 1369 1363
1543 1544 1545 1545 1546 1546 1545 1543 1541 1539 1535 1531 1527 1522 1518 1513 1508 1502 1496 1491 1486 1480 1475 1470 1465 1460 1454 1449 1445 1439 1433 1428 1422 1417 1411 1406 1402 1396 1390 1382 1376 1370 1364
1539 1541 1542 1542 1543 1543 1542 1541 1539 1537 1534 1530 1526 1522 1518 1513 1508 1503 1498 1492 1486 1481 1475 1470 1465 1460 1455 1449 1444 1441 1435 1429 1424 1418 1413 1408 1403 1397 1391 1385 1379 1374 1367
1535 1537 1538 1539 1540 1540 1540 1539 1537 1535 1532 1529 1525 1522 1518 1513 1508 1503 1498 1493 1486 1480 1475 1469 1463 1459 1454 1449 1444 1441 1437 1432 1426 1421 1416 1411 1405 1398 1392 1387 1382 1375 1369
1532 1534 1535 1536 1537 1537 1537 1536 1535 1533 1531 1528 1525 1521 1518 1513 1508 1503 1497 1492 1486 1480 1474 1469 1463 1458 1453 1448 1443 1439 1436 1432 1427 1422 1418 1413 1407 1400 1394 1389 1383 1377 1371
1529 1530 1532 1532 1533 1534 1534 1534 1533 1531 1529 1527 1524 1520 1517 1513 1508 1503 1498 1492 1486 1480 1476 1470 1464 1458 1452 1447 1443 1439 1435 1431 1427 1423 1418 1414 1408 1403 1398 1392 1386 1380 1376
1525 1527 1528 1529 1530 1530 1531 1531 1530 1529 1528 1525 1523 1519 1516 1511 1507 1503 1498 1492 1487 1483 1479 1472 1467 1460 1453 1450 1445 1441 1436 1432 1428 1423 1419 1414 1409 1404 1399 1395 1390 1385 1380
1521 1523 1525 1526 1527 1527 1528 1528 1528 1527 1525 1524 1521 1518 1515 1510 1506 1501 1497 1494 1489 1483 1479 1474 1469 1463 1458 1452 1446 1441 1436 1432 1428 1423 1419 1415 1411 1407 1403 1399 1395 1390 1385